Temperature
28 28 27 26 26 25 25 24 23 22 22 21 20 20 20 19 19 18 18 18 18 18 18 18 18 18 18 17 17 17 17 17 17 16 16 16 16 16 16 16 16 16 16
28 27 26 25 25 24 23 23 23 22 21 21 20 20 19 19 19 18 18 18 18 18 18 18 17 18 17 17 17 17 17 16 16 16 16 16 16 16 16 16 16 16 16
28 26 25 24 24 23 22 22 22 22 21 20 19 19 18 18 18 18 18 18 18 18 17 17 17 17 17 17 17 17 16 16 16 16 16 16 16 16 16 16 16 16 16
28 26 25 23 23 22 22 21 21 21 20 19 19 18 18 18 18 18 18 18 18 17 17 17 17 17 17 17 17 16 16 16 16 16 16 17 17 16 16 16 16 16 16
27 25 24 23 23 22 21 21 21 20 20 19 18 18 18 18 18 18 18 18 17 17 17 17 17 17 17 17 16 16 16 16 16 16 16 16 17 17 17 16 16 16 16
26 25 24 23 22 21 21 21 20 20 20 19 18 18 18 18 18 18 17 17 17 17 17 17 17 16 16 16 16 16 16 16 16 15 16 16 17 17 17 17 16 16 16
25 24 23 22 21 21 21 21 21 21 20 19 18 19 18 18 18 18 17 17 17 16 16 16 16 16 16 16 16 15 15 15 15 15 15 16 16 17 17 17 17 16 16
24 23 22 22 21 21 21 21 20 20 19 19 19 19 19 18 18 17 17 16 16 16 16 15 15 15 15 15 15 15 15 15 15 15 15 15 16 16 17 17 17 16 16
24 23 22 21 21 21 21 20 20 19 19 19 19 19 19 18 17 17 16 16 16 15 15 15 15 15 15 15 15 15 15 15 15 15 15 15 15 16 16 16 17 16 16
24 23 23 22 21 21 21 20 20 19 19 19 19 19 18 18 17 17 16 16 16 15 15 15 15 15 15 15 15 15 15 15 15 14 15 15 15 15 16 16 16 16 16
21 22 22 22 22 22 21 20 20 19 19 19 18 18 18 17 17 16 16 16 15 15 15 15 15 14 15 15 14 14 14 14 14 14 14 14 14 15 15 15 16 16 16
23 23 22 22 22 22 21 20 20 19 19 19 18 18 18 17 17 16 16 16 15 15 15 15 14 14 14 14 14 14 14 14 13 13 13 14 14 14 14 15 15 15 15
23 23 23 23 23 22 22 21 20 20 19 19 18 18 18 17 17 17 16 16 16 15 15 15 15 15 14 14 14 14 14 13 13 13 13 13 13 14 14 14 14 15 15
22 23 23 23 23 22 22 21 21 20 20 19 19 18 18 18 17 17 16 16 16 16 15 15 15 15 15 14 14 14 14 13 13 13 13 13 13 14 14 14 14 15 15
22 22 23 23 22 22 21 21 21 20 19 19 18 18 18 18 17 17 16 16 16 16 16 15 15 15 15 14 14 14 14 14 14 13 13 13 13 14 14 14 14 14 14
21 22 22 22 22 21 21 21 20 20 19 19 18 18 18 17 17 17 16 16 16 16 15 15 15 15 15 15 14 14 14 14 14 14 14 14 14 14 14 14 14 14 14
20 21 21 21 21 21 20 20 20 19 19 19 18 18 17 17 17 16 16 16 15 15 15 15 15 15 15 15 15 15 14 14 14 14 14 14 14 14 14 14 14 14 14
18 19 19 19 19 19 19 19 19 18 18 18 18 17 17 16 16 15 15 15 15 15 15 15 15 15 15 15 15 15 15 14 14 14 14 14 14 14 14 14 14 14 14
17 17 18 18 18 18 18 18 17 17 17 17 16 16 16 15 15 15 15 15 15 15 15 15 15 15 15 15 15 15 15 15 15 15 14 15 15 14 14 14 14 14 14
16 16 17 17 17 16 17 16 16 15 15 14 14 14 14 14 14 14 14 14 14 14 14 14 15 15 14 15 15 15 15 15 15 14 14 15 14 14 14 14 14 14 14
16 16 15 15 15 15 15 15 14 13 13 13 13 13 13 13 13 13 13 13 13 13 14 14 14 14 14 14 14 14 14 14 14 14 14 14 14 14 14 14 14 14 14
15 15 15 15 15 14 14 14 13 13 12 12 12 12 12 12 12 12 12 12 12 12 13 13 13 13 14 14 14 14 14 14 14 14 14 14 14 14 14 14 14 13 13
16 15 15 15 15 14 14 13 13 13 13 12 12 12 12 11 11 11 11 11 11 12 12 12 12 13 13 13 13 13 13 13 13 13 13 13 13 13 13 13 13 13 13
16 15 15 15 15 14 14 13 13 13 13 13 12 12 12 11 11 11 11 11 11 11 12 12 12 12 12 12 12 12 12 12 12 13 13 13 13 13 13 13 13 13 13
16 15 16 15 15 15 14 14 13 13 14 13 13 12 12 11 11 11 11 11 11 11 11 12 12 12 12 12 12 12 12 12 12 12 12 12 12 12 12 12 12 12 12
16 16 15 15 15 15 14 14 13 13 13 13 12 12 12 11 11 11 11 11 11 11 11 11 12 12 12 12 12 12 12 12 12 11 11 11 12 12 12 11 11 11 12
Wind_Speed
10 9 9 8 6 3 1 3 6 7 6 5 4 2 3 5 4 4 5 5 4 4 3 5 5 4 6 6 5 4 4 3 3 3 3 1 0 5 2 2 3 5 7
9 10 11 9 7 6 4 1 4 4 5 5 4 3 3 4 5 5 5 6 6 6 3 6 4 4 5 7 5 5 3 2 3 4 3 2 0 1 3 2 3 5 3
12 15 13 11 8 8 6 3 4 6 6 5 4 2 2 2 3 6 5 6 6 7 5 6 6 6 5 5 5 5 5 3 3 3 4 4 4 3 2 5 3 4 2
7 15 14 12 10 8 7 8 4 6 7 5 4 4 4 5 5 6 6 7 7 6 6 5 6 7 6 6 6 6 5 5 5 5 5 5 5 4 3 3 4 6 5
8 15 13 12 11 9 7 7 7 6 7 5 5 4 4 5 5 5 8 8 7 7 6 6 7 8 6 7 8 7 7 7 7 7 6 4 3 4 4 4 4 3 4
10 14 13 12 11 9 7 7 7 8 5 3 4 6 6 5 4 2 4 5 4 5 8 8 8 8 7 8 9 8 9 9 9 8 8 5 3 3 3 4 5 5 5
11 14 13 12 10 9 7 7 8 7 5 5 7 8 6 3 4 4 5 4 3 4 6 7 7 7 8 9 9 9 9 10 10 10 8 6 5 4 3 4 4 4 4
12 13 12 11 10 9 8 8 8 7 6 5 5 2 7 3 1 3 3 4 3 3 4 5 6 7 7 8 8 8 9 9 10 11 10 6 5 4 3 3 4 3 2
13 13 12 12 11 9 8 8 8 8 7 6 2 1 4 5 3 2 2 3 3 3 2 2 3 3 4 5 6 5 7 8 9 9 9 7 4 3 1 1 3 5 4
10 12 12 12 11 10 9 8 8 8 7 5 3 3 3 5 3 1 3 4 4 5 3 3 2 2 2 3 3 3 4 5 6 6 7 6 3 2 2 1 0 2 5
6 4 2 7 10 11 11 9 8 7 8 7 5 6 3 3 4 3 3 2 3 5 4 4 4 4 4 3 3 3 4 5 5 5 5 4 2 1 1 2 1 1 1
2 4 4 4 6 10 12 11 10 9 8 7 6 6 6 5 4 5 6 5 5 5 5 6 6 5 5 5 5 5 5 5 6 6 6 5 4 3 1 1 1 2 2
6 1 2 1 2 4 7 9 10 9 9 7 6 6 6 7 6 5 6 6 6 6 6 6 7 7 7 6 6 6 5 6 6 7 7 7 6 5 1 0 1 2 3
8 6 2 3 3 4 5 6 9 9 10 8 6 6 6 7 6 5 5 5 6 7 7 7 8 8 8 8 7 7 6 6 6 6 7 7 7 6 5 3 3 2 3
8 6 4 2 3 4 4 4 5 8 10 9 7 6 6 6 6 5 5 4 5 5 6 6 7 8 8 8 9 8 8 7 7 7 8 8 9 10 8 6 5 4 3
6 4 4 1 1 3 4 3 4 6 8 9 8 7 5 3 5 4 5 6 5 5 4 5 6 7 7 10 12 8 7 8 8 9 9 10 12 14 16 15 12 9 7
9 8 8 6 4 4 5 5 5 5 3 4 4 4 3 2 2 3 5 5 5 5 4 4 5 6 6 11 13 11 5 5 6 8 8 8 10 14 11 14 17 15 15
14 12 11 11 11 11 10 9 9 9 8 8 8 7 5 4 3 4 4 5 5 6 6 6 6 6 8 12 12 10 6 5 6 6 7 7 7 9 10 9 9 9 10
12 12 12 12 12 12 11 11 11 11 10 9 9 9 8 7 6 5 5 5 5 5 6 6 7 6 7 12 12 10 4 5 7 7 6 4 3 4 9 7 6 6 5
10 10 11 11 11 11 11 11 10 9 9 8 8 8 7 6 6 6 5 5 5 4 3 5 5 6 7 12 12 10 4 4 5 4 1 2 3 4 5 4 4 5 4
8 8 9 8 9 9 10 10 9 8 7 6 5 5 5 5 5 5 5 5 4 3 2 2 2 3 4 9 11 10 3 1 2 2 1 3 6 5 4 2 1 2 2
6 7 6 6 7 7 7 7 6 4 4 4 3 3 3 5 5 5 5 4 4 3 3 2 2 1 3 5 6 7 4 1 2 2 1 3 6 4 3 2 3 2 1
5 4 3 4 5 6 6 5 4 3 2 3 3 3 4 4 5 6 5 4 3 3 2 2 1 1 2 4 5 4 2 1 1 1 3 6 6 4 3 3 4 2 1
4 1 0 3 4 4 5 5 4 4 1 3 3 5 6 6 7 6 7 6 6 5 3 3 1 0 2 2 3 3 3 3 3 2 4 5 4 1 1 4 3 3 2
3 1 3 3 2 4 5 5 5 6 4 4 5 6 5 5 5 6 6 6 7 6 5 5 4 3 3 4 4 2 1 1 1 2 3 2 2 2 3 3 3 2 2
3 3 2 2 3 4 5 5 4 6 5 5 5 4 3 3 2 4 5 10 9 11 13 12 9 6 7 5 5 6 5 5 3 2 1 2 3 3 3 3 2 2 2
Wind_Direction
192 175 140 121 124 127 143 136 147 166 154 144 150 157 159 153 164 169 178 184 201 216 169 165 188 162 148 150 149 130 139 134 154 117 114 177 316 105 152 118 103 101 130
173 135 130 127 141 128 102 60 143 145 134 131 144 168 193 193 180 178 181 184 197 209 200 167 153 134 139 144 141 126 146 177 179 144 145 177 352 293 159 100 145 155 171
168 146 143 134 127 118 124 88 66 101 94 112 119 143 173 232 201 181 192 194 203 210 190 185 158 144 144 151 150 144 158 189 239 194 161 172 193 188 176 195 200 135 136
162 145 140 135 132 126 129 127 112 116 119 128 150 170 181 202 207 195 196 200 206 206 196 189 173 166 162 165 175 170 169 172 221 250 221 190 165 165 173 208 197 168 180
140 135 135 133 127 126 126 119 120 106 119 147 157 181 213 220 222 203 188 197 204 203 195 195 190 189 183 184 189 185 183 187 200 233 246 236 195 197 145 180 200 179 181
132 128 124 117 115 115 115 115 119 102 107 137 173 190 210 216 208 189 174 187 185 200 206 204 203 201 197 200 201 197 194 196 203 219 242 226 198 219 174 165 183 185 197
134 127 124 123 126 134 140 134 126 126 153 197 217 199 180 206 199 178 173 171 179 194 216 212 210 213 212 210 205 205 204 201 203 212 233 237 210 212 211 162 176 183 182
133 132 135 136 145 151 156 153 146 152 166 222 243 192 138 129 65 99 126 157 165 184 203 214 218 220 218 214 209 208 208 202 202 209 218 241 243 230 217 160 154 151 178
140 142 147 151 156 160 165 163 155 159 172 219 229 319 104 119 118 132 132 129 155 168 167 191 208 207 209 211 206 206 204 196 196 201 209 224 244 263 258 156 144 152 177
143 150 154 159 163 166 170 175 178 175 175 213 182 110 81 118 93 98 142 157 163 136 144 180 178 155 146 175 186 196 198 188 186 187 191 200 218 259 286 312 81 152 170
52 51 140 171 171 168 172 178 189 187 171 186 171 136 163 139 149 174 126 132 139 140 165 163 164 149 146 152 161 176 179 182 175 177 172 169 152 197 291 330 332 298 184
127 150 175 195 185 176 179 184 190 189 169 176 166 167 169 163 191 183 169 185 170 165 180 162 161 156 156 157 161 170 173 175 168 161 150 141 127 103 36 353 313 292 278
328 324 142 192 202 190 188 186 188 179 160 167 175 175 178 184 204 200 178 183 171 178 183 169 170 168 165 163 160 155 155 156 157 155 151 148 139 130 133 275 286 294 295
313 309 254 211 204 209 207 201 188 166 155 162 184 199 206 187 194 203 177 184 191 190 193 184 174 169 169 171 170 169 169 167 167 169 170 171 171 169 183 214 241 259 280
297 290 277 237 181 186 200 207 179 158 155 160 186 208 226 193 182 192 175 199 211 211 202 184 177 171 172 182 179 179 183 183 188 193 195 197 199 201 203 212 218 228 244
329 334 330 14 117 160 163 155 146 142 151 164 187 204 224 206 178 192 192 207 209 223 215 190 179 175 185 177 177 184 192 195 200 205 208 210 212 220 222 227 230 226 232
19 27 28 38 49 85 103 102 104 103 123 150 164 164 183 234 214 226 227 216 210 215 221 209 192 186 175 173 179 193 210 224 219 215 214 218 217 214 218 227 233 240 243
28 31 38 44 52 60 66 66 61 58 50 44 37 33 25 1 325 288 267 241 228 216 212 211 205 197 181 179 180 185 214 253 258 243 227 218 219 205 203 211 218 224 231
26 31 38 48 51 50 56 65 63 57 49 37 26 22 17 7 352 330 308 286 267 245 217 212 211 205 184 182 181 174 205 244 259 259 247 233 221 197 192 199 220 230 235
26 31 36 45 51 50 53 60 60 56 48 39 34 26 20 3 353 342 329 316 297 277 249 224 209 203 190 186 184 184 206 239 262 273 269 117 107 101 157 196 216 223 222
29 39 41 40 47 55 59 57 54 56 55 47 39 27 18 5 9 351 342 336 328 320 307 282 241 209 186 178 183 185 214 270 322 338 1 96 121 130 149 177 215 193 186
43 44 47 46 46 47 63 70 52 53 73 59 30 29 46 20 14 5 358 355 356 346 325 305 278 212 132 151 179 187 204 349 337 336 13 111 130 140 159 158 145 139 150
66 58 54 57 65 55 45 63 53 8 80 73 13 19 64 56 33 19 9 2 3 350 323 302 269 216 144 138 156 178 196 219 323 30 91 133 142 145 164 164 153 174 198
79 20 65 69 62 64 59 47 21 329 352 106 57 52 53 49 46 34 20 21 18 11 8 1 347 157 135 128 150 179 195 198 203 168 123 128 128 270 279 162 199 229 215
122 318 36 34 24 75 75 54 13 339 350 67 75 77 73 67 64 63 41 29 47 39 29 16 21 35 64 40 45 63 89 181 211 155 144 164 174 217 224 202 203 198 161
137 139 113 298 339 61 80 78 22 350 15 49 52 60 87 84 100 120 101 58 59 56 53 46 43 54 49 43 53 64 61 60 66 109 200 225 223 223 224 214 211 203 209
Height
1467 1472 1475 1478 1482 1486 1489 1492 1493 1495 1497 1499 1501 1503 1504 1505 1506 1508 1511 1513 1515 1517 1520 1522 1525 1526 1527 1529 1532 1535 1537 1540 1542 1544 1545 1547 1547 1547 1548 1549 1549 1549 1548
1463 1467 1471 1475 1480 1484 1487 1490 1491 1493 1495 1496 1498 1500 1502 1504 1505 1506 1508 1510 1512 1514 1516 1518 1521 1523 1524 1526 1529 1532 1535 1538 1540 1543 1544 1546 1547 1547 1548 1549 1549 1549 1549
1458 1463 1468 1472 1477 1481 1484 1487 1489 1490 1492 1493 1495 1496 1498 1500 1503 1504 1505 1507 1508 1510 1512 1514 1516 1519 1521 1523 1525 1528 1531 1534 1538 1540 1542 1543 1544 1545 1547 1547 1548 1549 1549
1455 1459 1465 1470 1475 1479 1483 1485 1486 1489 1489 1490 1492 1494 1495 1497 1499 1501 1502 1504 1505 1507 1508 1510 1512 1514 1517 1519 1521 1524 1527 1531 1533 1537 1539 1541 1541 1543 1544 1546 1547 1548 1548
1454 1459 1464 1469 1474 1478 1481 1483 1485 1487 1487 1488 1490 1492 1493 1495 1497 1499 1500 1501 1502 1503 1505 1506 1507 1509 1512 1515 1517 1519 1523 1526 1529 1532 1535 1537 1539 1540 1541 1543 1545 1546 1547
1453 1458 1464 1468 1473 1477 1479 1481 1483 1484 1485 1487 1488 1490 1492 1494 1495 1496 1497 1498 1499 1500 1501 1502 1503 1505 1507 1509 1512 1515 1518 1521 1524 1527 1530 1533 1535 1537 1539 1540 1541 1543 1545
1453 1458 1463 1468 1472 1475 1478 1480 1481 1483 1484 1485 1487 1489 1490 1492 1493 1494 1495 1495 1496 1497 1498 1499 1499 1501 1502 1504 1507 1510 1512 1516 1519 1522 1525 1529 1531 1534 1536 1537 1538 1540 1542
1453 1458 1463 1468 1471 1474 1476 1478 1480 1482 1483 1485 1487 1489 1489 1490 1491 1492 1492 1493 1494 1494 1495 1495 1496 1497 1498 1500 1502 1504 1506 1510 1513 1516 1520 1523 1527 1530 1532 1534 1536 1538 1540
1454 1458 1463 1467 1470 1472 1475 1477 1479 1481 1482 1484 1486 1488 1488 1488 1489 1490 1490 1491 1491 1491 1492 1492 1492 1493 1494 1495 1497 1498 1501 1504 1507 1510 1514 1517 1520 1524 1528 1530 1532 1535 1536
1454 1457 1462 1466 1469 1472 1474 1476 1478 1480 1481 1483 1485 1486 1486 1486 1487 1488 1488 1489 1489 1489 1489 1489 1490 1490 1490 1491 1492 1494 1496 1499 1502 1505 1508 1511 1515 1518 1522 1525 1528 1530 1532
1458 1460 1462 1464 1467 1470 1472 1474 1477 1479 1480 1481 1483 1483 1484 1485 1485 1486 1487 1487 1488 1487 1487 1487 1488 1488 1488 1489 1490 1491 1492 1494 1497 1500 1502 1505 1509 1513 1516 1520 1523 1526 1529
1459 1461 1463 1464 1465 1467 1469 1471 1474 1476 1478 1479 1481 1481 1483 1483 1484 1484 1485 1485 1486 1486 1487 1487 1487 1487 1487 1487 1488 1488 1489 1491 1493 1495 1497 1500 1504 1508 1512 1515 1518 1522 1524
1460 1460 1461 1463 1464 1466 1467 1468 1470 1473 1475 1477 1479 1480 1481 1482 1482 1483 1483 1484 1485 1485 1485 1486 1486 1486 1486 1487 1487 1487 1488 1489 1491 1492 1494 1496 1499 1503 1507 1511 1514 1518 1520
1459 1459 1460 1461 1462 1463 1464 1466 1468 1470 1472 1474 1477 1478 1480 1480 1481 1482 1482 1482 1483 1484 1484 1484 1485 1485 1486 1486 1487 1487 1488 1489 1490 1491 1493 1495 1498 1501 1504 1507 1511 1514 1516
1457 1457 1458 1458 1459 1460 1461 1463 1466 1468 1470 1472 1475 1477 1478 1479 1479 1480 1480 1480 1481 1482 1482 1483 1483 1484 1484 1485 1486 1487 1488 1489 1490 1491 1493 1494 1497 1499 1502 1504 1507 1510 1512
1456 1456 1456 1457 1457 1458 1459 1461 1464 1467 1469 1471 1473 1475 1477 1478 1477 1478 1478 1478 1478 1479 1480 1481 1482 1482 1483 1484 1485 1487 1488 1489 1490 1491 1492 1494 1495 1497 1499 1501 1504 1506 1508
1458 1457 1457 1457 1457 1458 1459 1461 1464 1467 1469 1471 1473 1474 1474 1475 1475 1475 1475 1475 1476 1477 1478 1478 1479 1480 1481 1482 1484 1485 1487 1488 1489 1490 1491 1492 1493 1495 1496 1498 1500 1502 1503
1463 1461 1460 1460 1460 1460 1462 1463 1465 1467 1468 1469 1470 1470 1471 1471 1471 1472 1472 1472 1472 1473 1474 1475 1476 1477 1478 1480 1482 1484 1485 1486 1487 1489 1490 1491 1492 1492 1493 1494 1496 1497 1499
1470 1468 1466 1465 1464 1464 1465 1466 1466 1467 1467 1467 1468 1467 1467 1467 1467 1467 1467 1468 1469 1469 1470 1472 1473 1474 1476 1477 1479 1481 1483 1484 1485 1486 1488 1488 1489 1489 1490 1491 1492 1494 1495
1475 1473 1471 1470 1469 1469 1468 1468 1468 1467 1467 1467 1466 1465 1464 1463 1463 1463 1463 1463 1464 1465 1466 1468 1469 1471 1472 1474 1476 1478 1479 1481 1483 1484 1484 1485 1486 1486 1487 1488 1489 1490 1491
1480 1478 1476 1474 1474 1473 1472 1470 1470 1469 1469 1467 1466 1465 1463 1462 1460 1459 1459 1459 1460 1461 1462 1464 1466 1468 1469 1471 1473 1475 1476 1478 1479 1480 1481 1481 1482 1483 1484 1484 1485 1487 1488
1483 1481 1480 1479 1478 1476 1475 1473 1472 1472 1470 1469 1467 1466 1464 1462 1460 1458 1457 1457 1457 1458 1459 1461 1463 1464 1465 1467 1469 1471 1473 1475 1476 1477 1478 1478 1479 1480 1480 1481 1482 1484 1485
1485 1484 1483 1482 1480 1479 1478 1476 1474 1473 1472 1470 1469 1467 1465 1463 1461 1459 1458 1457 1457 1458 1458 1459 1461 1462 1463 1464 1466 1468 1470 1472 1473 1474 1475 1476 1476 1477 1477 1478 1480 1481 1482
1485 1485 1484 1484 1482 1481 1479 1477 1476 1474 1474 1472 1470 1468 1466 1464 1462 1461 1460 1459 1459 1459 1459 1460 1461 1462 1463 1463 1464 1466 1468 1470 1471 1472 1473 1473 1474 1474 1475 1476 1477 1478 1479
1486 1485 1485 1484 1484 1482 1480 1478 1476 1475 1474 1473 1471 1470 1468 1466 1465 1464 1463 1462 1461 1461 1461 1462 1462 1463 1463 1464 1465 1466 1467 1468 1469 1469 1470 1471 1472 1472 1473 1474 1475 1476 1477
1486 1486 1485 1485 1484 1483 1481 1479 1477 1476 1475 1474 1473 1471 1470 1469 1468 1467 1466 1465 1465 1464 1464 1464 1463 1463 1463 1464 1464 1465 1466 1467 1467 1468 1469 1470 1471 1472 1473 1473 1474 1475 1476